EWG85Z LDZA-EDDK

Flight info

Callsign EWG85Z
Flight time 1h 25m
Altitude 38000
Route OBUTI DCT GOLVA DCT NEMAL DCT SIMBA DCT AKINI Z109 UPALA L610 KOMIB L984 ASKIK T840 GULKO GULKO1B
Aircraft A319/M-SDE3FGHIRWY/LB1

Departure

Time 2026-04-26 14:51
Airport Zagreb Franjo Tuđman International Airport (LDZA)

Arrival

Time 2026-04-26 16:16
Airport Cologne Bonn Airport (EDDK)
Time Latitude Longitude Altitude Speed Heading
2026-04-26 14:03 45.74264 16.07963 359 ft 0 kts 136°
2026-04-26 14:31 45.74265 16.07962 360 ft 2 kts 136°
2026-04-26 14:31 45.74280 16.07943 362 ft 3 kts 142°
2026-04-26 14:32 45.74296 16.07926 363 ft 3 kts 138°
2026-04-26 14:32 45.74308 16.07909 359 ft 3 kts 147°
2026-04-26 14:32 45.74325 16.07899 359 ft 3 kts 181°
2026-04-26 14:32 45.74343 16.07904 366 ft 3 kts 214°
2026-04-26 14:33 45.74358 16.07922 359 ft 3 kts 226°
2026-04-26 14:33 45.74365 16.07932 359 ft 0 kts 226°
2026-04-26 14:37 45.74364 16.07931 359 ft 1 kts 226°
2026-04-26 14:38 45.74357 16.07920 363 ft 2 kts 229°
2026-04-26 14:38 45.74348 16.07904 360 ft 2 kts 229°
2026-04-26 14:38 45.74343 16.07897 359 ft 0 kts 228°
2026-04-26 14:39 45.74334 16.07882 359 ft 4 kts 227°
2026-04-26 14:39 45.74317 16.07856 361 ft 7 kts 226°
2026-04-26 14:39 45.74274 16.07792 363 ft 11 kts 227°
2026-04-26 14:39 45.74189 16.07662 361 ft 14 kts 226°
2026-04-26 14:40 45.74144 16.07594 359 ft 14 kts 227°
2026-04-26 14:40 45.74071 16.07479 363 ft 16 kts 234°
2026-04-26 14:40 45.74108 16.07352 359 ft 15 kts 318°
2026-04-26 14:40 45.74181 16.07255 359 ft 14 kts 317°
2026-04-26 14:41 45.74213 16.07153 362 ft 11 kts 243°
2026-04-26 14:41 45.74163 16.07075 359 ft 12 kts 226°
2026-04-26 14:41 45.74105 16.06987 363 ft 12 kts 226°
2026-04-26 14:41 45.74050 16.06903 359 ft 11 kts 227°
2026-04-26 14:42 45.74000 16.06826 359 ft 10 kts 227°
2026-04-26 14:42 45.73954 16.06756 359 ft 9 kts 227°
2026-04-26 14:42 45.73912 16.06690 363 ft 9 kts 225°
2026-04-26 14:42 45.73869 16.06627 359 ft 10 kts 226°
2026-04-26 14:43 45.73822 16.06556 362 ft 0 kts 227°
2026-04-26 14:43 45.73818 16.06550 359 ft 2 kts 226°
2026-04-26 14:44 45.73806 16.06532 366 ft 4 kts 226°
2026-04-26 14:44 45.73780 16.06492 359 ft 7 kts 227°
2026-04-26 14:44 45.73743 16.06435 359 ft 8 kts 231°
2026-04-26 14:44 45.73752 16.06382 360 ft 0 kts 317°
2026-04-26 14:46 45.73752 16.06381 359 ft 0 kts 317°
2026-04-26 14:46 45.73756 16.06376 365 ft 1 kts 317°
2026-04-26 14:46 45.73765 16.06365 361 ft 2 kts 317°
2026-04-26 14:47 45.73776 16.06349 359 ft 3 kts 317°
2026-04-26 14:47 45.73785 16.06338 364 ft 0 kts 316°
2026-04-26 14:48 45.73786 16.06337 360 ft 0 kts 316°
2026-04-26 14:48 45.73790 16.06331 360 ft 2 kts 316°
2026-04-26 14:48 45.73806 16.06310 362 ft 4 kts 316°
2026-04-26 14:49 45.73834 16.06271 364 ft 7 kts 316°
2026-04-26 14:49 45.73881 16.06247 365 ft 7 kts 42°
2026-04-26 14:49 45.73884 16.06253 365 ft 0 kts 48°
2026-04-26 14:50 45.73886 16.06256 364 ft 3 kts 48°
2026-04-26 14:50 45.74034 16.06486 361 ft 69 kts 46°
2026-04-26 14:50 45.74530 16.07237 362 ft 136 kts 47°
2026-04-26 14:51 45.75229 16.08308 792 ft 147 kts 50°
2026-04-26 14:51 45.75934 16.09377 1418 ft 146 kts 49°
2026-04-26 14:51 45.76635 16.10436 2111 ft 146 kts 50°
2026-04-26 14:51 45.77334 16.11492 2673 ft 150 kts 50°
2026-04-26 14:52 45.78053 16.12579 3266 ft 151 kts 49°
2026-04-26 14:52 45.78787 16.13697 3686 ft 162 kts 49°
2026-04-26 14:52 45.79610 16.14957 3964 ft 184 kts 49°
2026-04-26 14:52 45.80533 16.16380 4308 ft 206 kts 49°
2026-04-26 14:53 45.81580 16.17983 4584 ft 236 kts 47°
2026-04-26 14:53 45.82757 16.19783 5083 ft 258 kts 47°
2026-04-26 14:53 45.84024 16.21725 5815 ft 271 kts 45°
2026-04-26 14:53 45.85323 16.23718 6683 ft 278 kts 44°
2026-04-26 14:54 45.86664 16.25757 7550 ft 282 kts 44°
2026-04-26 14:54 45.88018 16.27819 8442 ft 285 kts 43°
2026-04-26 14:54 45.89383 16.29914 9376 ft 288 kts 45°
2026-04-26 14:54 45.90632 16.32199 10227 ft 294 kts 50°
2026-04-26 14:55 45.91875 16.34560 10809 ft 305 kts 50°
2026-04-26 14:55 45.93323 16.36783 11535 ft 306 kts 36°
2026-04-26 14:55 45.95156 16.38320 12313 ft 305 kts 19°
2026-04-26 14:55 45.97249 16.39053 12758 ft 319 kts
2026-04-26 14:56 45.99482 16.38796 13280 ft 327 kts 347°
2026-04-26 14:56 46.01730 16.38103 13974 ft 332 kts 347°
2026-04-26 14:56 46.03984 16.37425 14613 ft 336 kts 347°
2026-04-26 14:56 46.06280 16.36746 15296 ft 338 kts 348°
2026-04-26 14:57 46.08595 16.36066 15966 ft 341 kts 348°
2026-04-26 14:57 46.10931 16.35381 16622 ft 344 kts 348°
2026-04-26 14:57 46.13291 16.34687 17268 ft 348 kts 348°
2026-04-26 14:57 46.15678 16.33982 17927 ft 351 kts 348°
2026-04-26 14:58 46.18086 16.33266 18572 ft 354 kts 348°
2026-04-26 14:58 46.20513 16.32543 19122 ft 357 kts 348°
2026-04-26 14:58 46.22926 16.31829 19684 ft 360 kts 348°
2026-04-26 14:58 46.25394 16.31100 20241 ft 364 kts 347°
2026-04-26 14:59 46.27888 16.30361 20801 ft 367 kts 347°
2026-04-26 14:59 46.30398 16.29618 21366 ft 370 kts 347°
2026-04-26 14:59 46.32932 16.28866 21910 ft 373 kts 347°
2026-04-26 14:59 46.34599 16.28245 22252 ft 374 kts 340°
2026-04-26 15:00 46.37734 16.26034 22968 ft 377 kts 325°
2026-04-26 15:00 46.39758 16.23613 23495 ft 379 kts 314°
2026-04-26 15:00 46.41454 16.20669 23981 ft 382 kts 308°
2026-04-26 15:00 46.43082 16.17621 24422 ft 384 kts 308°
2026-04-26 15:01 46.44726 16.14546 24873 ft 387 kts 308°
2026-04-26 15:01 46.46359 16.11493 25288 ft 390 kts 308°
2026-04-26 15:01 46.48031 16.08369 25717 ft 392 kts 308°
2026-04-26 15:01 46.49702 16.05241 26157 ft 394 kts 308°
2026-04-26 15:02 46.51384 16.02088 26602 ft 396 kts 307°
2026-04-26 15:02 46.53075 15.98910 27031 ft 398 kts 307°
2026-04-26 15:02 46.54769 15.95721 27464 ft 400 kts 307°
2026-04-26 15:02 46.56477 15.92501 27897 ft 402 kts 307°
2026-04-26 15:03 46.58187 15.89274 28331 ft 404 kts 307°
2026-04-26 15:03 46.59888 15.86061 28755 ft 405 kts 307°
2026-04-26 15:03 46.61614 15.82805 29177 ft 407 kts 307°
2026-04-26 15:03 46.63355 15.79525 29591 ft 410 kts 307°
2026-04-26 15:04 46.65103 15.76227 30001 ft 412 kts 307°
2026-04-26 15:04 46.66855 15.72906 30372 ft 414 kts 307°
2026-04-26 15:04 46.68591 15.69601 30695 ft 416 kts 306°
2026-04-26 15:04 46.70354 15.66240 31016 ft 418 kts 307°
2026-04-26 15:05 46.72142 15.62901 31324 ft 420 kts 308°
2026-04-26 15:05 46.73376 15.60709 31524 ft 421 kts 308°
2026-04-26 15:05 46.75938 15.56341 31977 ft 423 kts 309°
2026-04-26 15:05 46.77843 15.53158 32429 ft 421 kts 310°
2026-04-26 15:06 46.79769 15.49934 32865 ft 420 kts 309°
2026-04-26 15:06 46.81679 15.46707 33315 ft 418 kts 309°
2026-04-26 15:06 46.83549 15.43511 33766 ft 417 kts 309°
2026-04-26 15:06 46.85424 15.40275 34202 ft 416 kts 309°
2026-04-26 15:07 46.89143 15.33814 34990 ft 413 kts 309°
2026-04-26 15:07 46.90974 15.30630 35344 ft 412 kts 309°
2026-04-26 15:07 46.92819 15.27423 35677 ft 412 kts 308°
2026-04-26 15:08 46.94663 15.24214 35978 ft 412 kts 308°
2026-04-26 15:08 46.96505 15.21004 36289 ft 411 kts 308°
2026-04-26 15:08 46.98345 15.17798 36621 ft 411 kts 308°
2026-04-26 15:08 47.00188 15.14584 36954 ft 410 kts 308°
2026-04-26 15:09 47.02024 15.11382 37288 ft 409 kts 308°
2026-04-26 15:09 47.03833 15.08219 37566 ft 409 kts 308°
2026-04-26 15:09 47.05664 15.05015 37852 ft 409 kts 308°
2026-04-26 15:09 47.07491 15.01814 38098 ft 409 kts 308°
2026-04-26 15:10 47.10531 14.96480 38135 ft 409 kts 308°
2026-04-26 15:10 47.14814 14.88940 38135 ft 412 kts 308°
2026-04-26 15:11 47.18463 14.82495 38136 ft 412 kts 308°
2026-04-26 15:11 47.22147 14.75990 38145 ft 412 kts 308°
2026-04-26 15:12 47.25816 14.69503 38132 ft 412 kts 308°
2026-04-26 15:12 47.29448 14.63045 38161 ft 413 kts 308°
2026-04-26 15:13 47.33121 14.56511 38155 ft 412 kts 308°
2026-04-26 15:13 47.36784 14.49985 38157 ft 412 kts 308°
2026-04-26 15:14 47.40407 14.43500 38174 ft 411 kts 307°
2026-04-26 15:14 47.44047 14.36977 38190 ft 412 kts 307°
2026-04-26 15:15 47.47689 14.30431 38187 ft 411 kts 307°
2026-04-26 15:15 47.51299 14.23921 38185 ft 412 kts 307°
2026-04-26 15:16 47.54936 14.17337 38183 ft 412 kts 307°
2026-04-26 15:16 47.58553 14.10806 38195 ft 412 kts 307°
2026-04-26 15:17 47.61577 14.05327 38204 ft 412 kts 307°
2026-04-26 15:17 47.65799 13.97648 38196 ft 412 kts 307°
2026-04-26 15:18 47.69428 13.91027 38191 ft 413 kts 307°
2026-04-26 15:18 47.73053 13.84397 38191 ft 413 kts 307°
2026-04-26 15:19 47.76650 13.77798 38194 ft 413 kts 307°
2026-04-26 15:19 47.80274 13.71143 38193 ft 413 kts 307°
2026-04-26 15:20 47.83892 13.64486 38210 ft 414 kts 307°
2026-04-26 15:20 47.87491 13.57843 38212 ft 414 kts 307°
2026-04-26 15:21 47.91102 13.51160 38209 ft 414 kts 307°
2026-04-26 15:21 47.95047 13.44884 38210 ft 415 kts 312°
2026-04-26 15:22 47.99073 13.38705 38210 ft 415 kts 311°
2026-04-26 15:22 48.03089 13.32511 38205 ft 415 kts 311°
2026-04-26 15:23 48.07088 13.26335 38201 ft 415 kts 311°
2026-04-26 15:23 48.11106 13.20116 38200 ft 415 kts 311°
2026-04-26 15:24 48.15120 13.13897 38197 ft 415 kts 311°
2026-04-26 15:24 48.19104 13.07698 38204 ft 415 kts 311°
2026-04-26 15:25 48.22431 13.02495 38206 ft 415 kts 311°
2026-04-26 15:25 48.27007 12.95037 38212 ft 415 kts 309°
2026-04-26 15:26 48.30775 12.88547 38212 ft 414 kts 309°
2026-04-26 15:26 48.34572 12.82011 38209 ft 414 kts 309°
2026-04-26 15:27 48.38384 12.75521 38227 ft 414 kts 309°
2026-04-26 15:27 48.42196 12.69038 38223 ft 413 kts 309°
2026-04-26 15:28 48.45975 12.62578 38221 ft 413 kts 309°
2026-04-26 15:28 48.49768 12.56067 38223 ft 413 kts 309°
2026-04-26 15:29 48.53561 12.49544 38227 ft 413 kts 309°
2026-04-26 15:30 48.61124 12.36494 38226 ft 413 kts 309°
2026-04-26 15:30 48.64269 12.31055 38228 ft 413 kts 309°
2026-04-26 15:31 48.69926 12.21230 38234 ft 412 kts 309°
2026-04-26 15:32 48.74930 12.12500 38234 ft 412 kts 308°
2026-04-26 15:32 48.79131 12.04691 38233 ft 411 kts 306°
2026-04-26 15:33 48.82638 11.97820 38235 ft 411 kts 306°
2026-04-26 15:33 48.86154 11.90968 38236 ft 411 kts 306°
2026-04-26 15:34 48.89698 11.84137 38232 ft 411 kts 307°
2026-04-26 15:34 48.93238 11.77314 38250 ft 411 kts 306°
2026-04-26 15:35 48.96765 11.70484 38248 ft 411 kts 306°
2026-04-26 15:35 49.00290 11.63633 38241 ft 410 kts 306°
2026-04-26 15:36 49.03782 11.56819 38244 ft 410 kts 306°
2026-04-26 15:36 49.07288 11.49966 38231 ft 410 kts 306°
2026-04-26 15:37 49.10806 11.43091 38233 ft 410 kts 306°
2026-04-26 15:37 49.14313 11.36215 38234 ft 410 kts 306°
2026-04-26 15:38 49.17790 11.29357 38232 ft 410 kts 306°
2026-04-26 15:38 49.21297 11.22459 38251 ft 411 kts 308°
2026-04-26 15:39 49.25225 11.16075 38255 ft 412 kts 311°
2026-04-26 15:39 49.28505 11.10793 38251 ft 411 kts 311°
2026-04-26 15:40 49.33087 11.03379 38254 ft 411 kts 311°
2026-04-26 15:40 49.37020 10.97001 38252 ft 412 kts 311°
2026-04-26 15:41 49.41397 10.91329 38253 ft 414 kts 323°
2026-04-26 15:41 49.46147 10.86274 38267 ft 415 kts 323°
2026-04-26 15:42 49.50896 10.81209 38265 ft 415 kts 323°
2026-04-26 15:42 49.55607 10.76178 38263 ft 415 kts 323°
2026-04-26 15:43 49.60356 10.71106 38261 ft 415 kts 323°
2026-04-26 15:44 49.67457 10.63472 38263 ft 414 kts 323°
2026-04-26 15:44 49.74523 10.55858 38274 ft 414 kts 323°
2026-04-26 15:45 49.81837 10.48724 38275 ft 414 kts 326°
2026-04-26 15:46 49.89243 10.41783 38269 ft 414 kts 326°
2026-04-26 15:46 49.93312 10.37869 38268 ft 414 kts 326°
2026-04-26 15:47 50.01423 10.29967 38267 ft 412 kts 322°
2026-04-26 15:47 50.03580 10.27049 38265 ft 409 kts 310°
2026-04-26 15:48 50.05284 10.23528 38260 ft 407 kts 299°
2026-04-26 15:48 50.07163 10.15288 38252 ft 406 kts 277°
2026-04-26 15:49 50.07264 10.06555 38239 ft 408 kts 271°
2026-04-26 15:49 50.07196 9.97705 38084 ft 410 kts 270°
2026-04-26 15:49 50.07156 9.93251 37806 ft 411 kts 270°
2026-04-26 15:50 50.07114 9.88802 37531 ft 411 kts 270°
2026-04-26 15:50 50.07066 9.84345 37262 ft 412 kts 270°
2026-04-26 15:50 50.07019 9.79878 36997 ft 413 kts 270°
2026-04-26 15:50 50.06972 9.75410 36734 ft 413 kts 270°
2026-04-26 15:51 50.06929 9.70931 36475 ft 412 kts 270°
2026-04-26 15:51 50.06886 9.66483 36218 ft 411 kts 270°
2026-04-26 15:51 50.06839 9.62040 35956 ft 410 kts 270°
2026-04-26 15:51 50.06791 9.57626 35673 ft 405 kts 270°
2026-04-26 15:52 50.06743 9.53254 35245 ft 403 kts 270°
2026-04-26 15:52 50.06691 9.48901 34793 ft 401 kts 270°
2026-04-26 15:52 50.06642 9.44567 34346 ft 400 kts 270°
2026-04-26 15:52 50.06609 9.41710 34018 ft 398 kts 270°
2026-04-26 15:53 50.06538 9.35969 33401 ft 394 kts 270°
2026-04-26 15:53 50.06482 9.31722 32962 ft 391 kts 270°
2026-04-26 15:53 50.06427 9.27566 32521 ft 388 kts 270°
2026-04-26 15:53 50.06370 9.23379 32082 ft 385 kts 270°
2026-04-26 15:54 50.06313 9.19219 31660 ft 382 kts 270°
2026-04-26 15:54 50.06256 9.15093 31238 ft 380 kts 270°
2026-04-26 15:54 50.06195 9.10994 30813 ft 377 kts 271°
2026-04-26 15:54 50.06130 9.06925 30412 ft 375 kts 271°
2026-04-26 15:55 50.06064 9.02857 29964 ft 373 kts 271°
2026-04-26 15:55 50.06002 8.98886 29582 ft 369 kts 271°
2026-04-26 15:55 50.05937 8.94860 29185 ft 367 kts 271°
2026-04-26 15:55 50.05869 8.90955 28821 ft 363 kts 270°
2026-04-26 15:56 50.05795 8.87035 28454 ft 360 kts 270°
2026-04-26 15:56 50.05723 8.83147 28082 ft 357 kts 270°
2026-04-26 15:56 50.05650 8.79286 27699 ft 355 kts 270°
2026-04-26 15:56 50.05579 8.75451 27336 ft 352 kts 270°
2026-04-26 15:57 50.05511 8.71710 26967 ft 349 kts 270°
2026-04-26 15:57 50.05444 8.67942 26588 ft 346 kts 270°
2026-04-26 15:57 50.05379 8.64214 26220 ft 343 kts 270°
2026-04-26 15:57 50.05374 8.61751 25938 ft 341 kts 276°
2026-04-26 15:58 50.06160 8.57059 25356 ft 338 kts 296°
2026-04-26 15:58 50.07447 8.54010 24917 ft 337 kts 311°
2026-04-26 15:58 50.09220 8.51644 24516 ft 336 kts 327°
2026-04-26 15:58 50.11334 8.50107 24114 ft 337 kts 339°
2026-04-26 15:59 50.13553 8.48906 23672 ft 337 kts 339°
2026-04-26 15:59 50.15765 8.47711 23233 ft 335 kts 339°
2026-04-26 15:59 50.17964 8.46526 22821 ft 332 kts 339°
2026-04-26 15:59 50.20143 8.45349 22403 ft 330 kts 339°
2026-04-26 16:00 50.22310 8.44173 22002 ft 328 kts 339°
2026-04-26 16:00 50.24459 8.43008 21605 ft 326 kts 339°
2026-04-26 16:00 50.26575 8.41865 21203 ft 325 kts 339°
2026-04-26 16:00 50.28700 8.40664 20794 ft 323 kts 334°
2026-04-26 16:01 50.30656 8.38955 20409 ft 320 kts 326°
2026-04-26 16:01 50.32523 8.37079 20024 ft 318 kts 326°
2026-04-26 16:01 50.34385 8.35222 19642 ft 317 kts 326°
2026-04-26 16:01 50.36240 8.33371 19263 ft 316 kts 326°
2026-04-26 16:02 50.38095 8.31517 18869 ft 314 kts 326°
2026-04-26 16:02 50.39912 8.29703 18481 ft 313 kts 326°
2026-04-26 16:02 50.41747 8.27875 18074 ft 311 kts 326°
2026-04-26 16:02 50.42979 8.26647 17816 ft 309 kts 326°
2026-04-26 16:03 50.45377 8.24258 17324 ft 306 kts 326°
2026-04-26 16:03 50.47168 8.22466 16946 ft 304 kts 326°
2026-04-26 16:03 50.48948 8.20677 16579 ft 302 kts 326°
2026-04-26 16:03 50.50713 8.18904 16211 ft 300 kts 326°
2026-04-26 16:04 50.52450 8.17163 15849 ft 299 kts 326°
2026-04-26 16:04 50.54197 8.15405 15487 ft 297 kts 326°
2026-04-26 16:04 50.55932 8.13651 15126 ft 296 kts 326°
2026-04-26 16:04 50.57663 8.11901 14763 ft 295 kts 326°
2026-04-26 16:05 50.59386 8.10164 14397 ft 294 kts 326°
2026-04-26 16:05 50.61107 8.08430 14029 ft 293 kts 326°
2026-04-26 16:05 50.62822 8.06701 13603 ft 292 kts 326°
2026-04-26 16:05 50.64524 8.04982 13233 ft 289 kts 326°
2026-04-26 16:06 50.66197 8.03291 12871 ft 288 kts 326°
2026-04-26 16:06 50.67875 8.01586 12513 ft 286 kts 326°
2026-04-26 16:06 50.69543 7.99890 12146 ft 285 kts 326°
2026-04-26 16:06 50.71207 7.98197 11789 ft 284 kts 326°
2026-04-26 16:07 50.72848 7.96465 11422 ft 282 kts 321°
2026-04-26 16:07 50.74033 7.94060 11236 ft 280 kts 294°
2026-04-26 16:07 50.74365 7.91039 11242 ft 285 kts 269°
2026-04-26 16:07 50.74141 7.87912 10986 ft 286 kts 264°
2026-04-26 16:08 50.73845 7.84810 10715 ft 285 kts 264°
2026-04-26 16:08 50.73642 7.82764 10522 ft 284 kts 264°
2026-04-26 16:08 50.73229 7.78650 10101 ft 282 kts 264°
2026-04-26 16:08 50.72923 7.75637 9764 ft 280 kts 263°
2026-04-26 16:09 50.72614 7.72598 9401 ft 280 kts 263°
2026-04-26 16:09 50.72311 7.69566 8983 ft 280 kts 263°
2026-04-26 16:09 50.72011 7.66521 8567 ft 281 kts 263°
2026-04-26 16:09 50.71714 7.63466 8169 ft 281 kts 263°
2026-04-26 16:10 50.71427 7.60457 7772 ft 281 kts 263°
2026-04-26 16:10 50.71140 7.57402 7378 ft 281 kts 263°
2026-04-26 16:10 50.70860 7.54363 6978 ft 277 kts 263°
2026-04-26 16:10 50.70586 7.51361 6578 ft 274 kts 263°
2026-04-26 16:11 50.70326 7.48440 6142 ft 271 kts 263°
2026-04-26 16:11 50.70074 7.45508 5707 ft 268 kts 264°
2026-04-26 16:11 50.70068 7.42595 5285 ft 265 kts 280°
2026-04-26 16:11 50.70462 7.39751 4901 ft 265 kts 288°
2026-04-26 16:12 50.71307 7.37191 4434 ft 265 kts 308°
2026-04-26 16:12 50.72619 7.35125 3817 ft 265 kts 319°
2026-04-26 16:12 50.75245 7.31384 3073 ft 245 kts 318°
2026-04-26 16:13 50.76477 7.29611 2748 ft 234 kts 318°
2026-04-26 16:13 50.77661 7.27907 2437 ft 224 kts 319°
2026-04-26 16:13 50.78782 7.26292 2140 ft 211 kts 318°
2026-04-26 16:13 50.79836 7.24775 1871 ft 198 kts 318°
2026-04-26 16:14 50.80805 7.23376 1638 ft 183 kts 319°
2026-04-26 16:14 50.81708 7.22074 1366 ft 168 kts 319°
2026-04-26 16:14 50.83236 7.19868 952 ft 134 kts 317°
2026-04-26 16:15 50.83918 7.18882 792 ft 130 kts 317°
2026-04-26 16:15 50.84571 7.17943 622 ft 127 kts 316°
2026-04-26 16:15 50.85223 7.16996 433 ft 127 kts 317°
2026-04-26 16:16 50.86382 7.15322 285 ft 79 kts 318°
2026-04-26 16:16 50.86663 7.14918 272 ft 34 kts 317°
2026-04-26 16:16 50.86820 7.14669 264 ft 31 kts 307°
2026-04-26 16:16 50.86878 7.14414 260 ft 16 kts 279°
2026-04-26 16:17 50.86890 7.14297 257 ft 10 kts 279°
2026-04-26 16:17 50.86892 7.14280 257 ft 0 kts 279°
2026-04-26 16:17 50.86895 7.14258 256 ft 6 kts 279°
2026-04-26 16:18 50.86905 7.14158 255 ft 11 kts 279°
2026-04-26 16:18 50.86986 7.13831 244 ft 24 kts 318°
2026-04-26 16:19 50.87297 7.13382 232 ft 37 kts 317°
2026-04-26 16:19 50.87495 7.13096 232 ft 37 kts 317°
2026-04-26 16:19 50.87751 7.12725 232 ft 24 kts 317°
2026-04-26 16:20 50.87929 7.12624 232 ft 22 kts
2026-04-26 16:20 50.88076 7.12373 232 ft 15 kts 306°
2026-04-26 16:20 50.88114 7.12291 234 ft 11 kts 306°
2026-04-26 16:21 50.88140 7.12216 232 ft 4 kts 266°
2026-04-26 16:21 50.88106 7.12169 232 ft 6 kts 215°
2026-04-26 16:21 50.88080 7.12139 232 ft 0 kts 216°
2026-04-26 16:21 50.88079 7.12138 232 ft 0 kts 216°